User: anonymous   Login
Location: Columbia
(38.9520°N, 92.3340°W)
Time: 19:36:51
(UTC-05:00)
Language:

CZ-4B R/B - Orbit

View from above orbital plane
View from above orbital plane
View from above satellite
View from above satellite

Ground track
Ground track

The orbit data is extracted from the following two-line orbital elements,

1 29093U 06015B   17116.86093916 +.00006286 +00000-0 +15080-3 0  9992
2 29093 097.4906 226.5649 0065656 141.3020 219.2957 15.39492286609530
Epoch (UTC): 26 April 2017 20:39:45
Eccentricity: 0.0065656
inclination: 97.4906°
perigee height: 403 km
apogee height: 492 km
right ascension of ascending node: 226.5649°
argument of perigee: 141.3020°
revolutions per day: 15.39492286
mean anomaly at epoch: 219.2957°
orbit number at epoch: 60953

The dashed part of the orbit path shows where the satellite is in the earth's shadow,  

DLR